Millinocket, ME

4:22 AM EDT on March 27, 2017 (GMT -0400)
Millinocket Municipal

Weather History for KMLT - February, 2012

Change the Weather History Date:

Wednesday, February 29, 2012

  Actual Average Record
Temperature  
Mean Temperature 19 °F 23 °F  
Max Temperature 30 °F 33 °F 44 °F (2004)
Min Temperature 7 °F 13 °F -12 °F (2008)
Degree Days  
Heating Degree Days 46 42  
Month to date heating degree days 1244 1348  
Since 1 July heating degree days 5253 6094  
Moisture  
Dew Point 7 °F    
Average Humidity 61    
Maximum Humidity 84    
Minimum Humidity 38    
Precipitation  
Precipitation T in 0.09 in 0.89 in (1984)
Month to date precipitation 1.45 2.18  
Year to date precipitation 4.04 5.11  
Sea Level Pressure  
Sea Level Pressure 30.31 in    
Wind  
Wind Speed 4 mph (WNW)    
Max Wind Speed 15 mph    
Max Gust Speed 21 mph    
Visibility 10 miles    
Events      
T = Trace of Precipitation, MM = Missing Value Source: NWS Daily Summary

Daily Weather History Graph

Daily Weather History Graph

Search for Another Location

Airport or City:

Trip Planner

Search our weather history database for the weather conditions in past years. The results will help you decide how hot, cold, wet, or windy it might be!

Date:

Astronomy

Feb. 29, 2012 Rise Set
Actual Time 6:14 AM EST 5:20 PM EST
Civil Twilight 5:44 AM EST 5:50 PM EST
Nautical Twilight 5:10 AM EST 6:25 PM EST
Astronomical Twilight 4:35 AM EST 6:59 PM EST
Moon 9:38 AM EST (2/29) 12:27 AM EST (2/29)
Length of Visible Light 12h 06m
Length of Day
11h 06m
Waxing Crescent, 47% of the Moon is Illuminated
Feb 29
Waxing Crescent
Feb 29
First Quarter
Mar 8
Full
Mar 14
Last Quarter
Mar 22
New

Hourly Weather History & Observations

Time (EST) Temp. Windchill Dew Point Humidity Pressure Visibility Wind Dir Wind Speed Gust Speed Precip Events Conditions
12:53 AM 15.1 °F 7.7 °F 9.0 °F 77% 30.38 in 8.0 mi West 4.6 mph - N/A   Overcast
1:53 AM 15.1 °F 6.4 °F 8.1 °F 74% 30.38 in 10.0 mi West 5.8 mph - N/A   Overcast
2:53 AM 14.0 °F - 7.0 °F 74% 30.36 in 10.0 mi Calm Calm - N/A   Overcast
3:53 AM 12.9 °F - 7.0 °F 77% 30.36 in 10.0 mi Calm Calm - N/A   Mostly Cloudy
4:53 AM 14.0 °F 8.2 °F 7.0 °F 74% 30.37 in 10.0 mi West 3.5 mph - N/A   Overcast
5:53 AM 10.9 °F 4.7 °F 5.0 °F 77% 30.36 in 10.0 mi West 3.5 mph - N/A   Clear
7:53 AM 15.1 °F 6.4 °F 7.0 °F 70% 30.36 in 10.0 mi West 5.8 mph - N/A   Clear
8:53 AM 19.9 °F 10.1 °F 8.1 °F 60% 30.36 in 10.0 mi WNW 8.1 mph - N/A   Clear
9:53 AM 21.9 °F 11.7 °F 9.0 °F 58% 30.34 in 10.0 mi WNW 9.2 mph - N/A   Clear
10:53 AM 24.1 °F 15.2 °F 8.1 °F 51% 30.33 in 10.0 mi WNW 8.1 mph 17.3 mph N/A   Clear
11:53 AM 25.0 °F 15.5 °F 5.0 °F 43% 30.32 in 10.0 mi WNW 9.2 mph - 0.00 in   Clear
12:53 PM 27.0 °F 19.5 °F 5.0 °F 39% 30.29 in 10.0 mi WNW 6.9 mph 16.1 mph N/A   Clear
1:53 PM 28.9 °F 22.8 °F 7.0 °F 40% 30.26 in 10.0 mi WNW 5.8 mph - N/A   Clear
2:53 PM 28.9 °F 23.9 °F 7.0 °F 40% 30.25 in 10.0 mi WNW 4.6 mph - N/A   Clear
3:53 PM 28.9 °F - 6.1 °F 38% 30.25 in 10.0 mi Calm Calm - N/A   Clear
4:53 PM 27.0 °F 23.0 °F 7.0 °F 43% 30.26 in 10.0 mi NW 3.5 mph - N/A   Clear
5:53 PM 21.9 °F 15.7 °F 8.1 °F 55% 30.28 in 10.0 mi NE 4.6 mph - N/A   Clear
7:53 PM 19.9 °F 14.9 °F 8.1 °F 60% 30.25 in 10.0 mi ENE 3.5 mph - N/A   Clear
8:53 PM 16.0 °F - 8.1 °F 71% 30.27 in 10.0 mi Calm Calm - N/A   Clear
9:53 PM 17.1 °F - 8.1 °F 68% 30.26 in 10.0 mi Calm Calm - N/A   Clear
10:53 PM 14.0 °F - 7.0 °F 74% 30.26 in 10.0 mi Calm Calm - N/A   Clear
11:53 PM 16.0 °F 10.4 °F 7.0 °F 68% 30.24 in 10.0 mi NNE 3.5 mph - N/A   Clear